Regional Weather Roundup
Issued by NWS

Home | Current Version | Previous Version | Graphics & Text | Print | Product List | Glossary Off
Versions: 1 2 3 4 5 6 7 8 9 10 11 12 13 14 15 16 17 18 19 20 21 22 23 24 25 26 27 28 29 30 31 32 33 34 35 36 37 38 39 40 41 42 43 44 45 46 47 48 49 50

000
ASUS43 KBIS 261931
RWRND
NORTH DAKOTA REGIONAL WEATHER ROUNDUP
NATIONAL WEATHER SERVICE EASTERN NORTH DAKOTA/GRAND FORKS ND
200 PM CDT THU APR 26 2018

  NOTE: "FAIR" INDICATES FEW OR NO CLOUDS BELOW 12,000 FEET WITH NO
  SIGNIFICANT WEATHER AND/OR OBSTRUCTIONS TO VISIBILITY.

NDZ001>003-009>011-017-262000-
...NORTHWEST NORTH DAKOTA...

CITY           SKY/WX    TMP DP  RH WIND       PRES   REMARKS
WILLISTON      FAIR      65  27  23 W15G24    30.10F
MINOT          FAIR      66  23  19 W23G30    30.05F
MINOT AFB      FAIR      64  24  22 W18G30    30.03F
$$

NDZ018>021-031>035-040>046-262000-
...SOUTHWEST NORTH DAKOTA...

CITY           SKY/WX    TMP DP  RH WIND       PRES   REMARKS
BISMARCK       FAIR      64  23  21 NW17G26   30.11F
DICKINSON      FAIR      63  27  25 W17G25    30.12F
GARRISON         N/A     62  24  23 NW24G37   30.09F
HETTINGER      FAIR      60  25  26 NW12G25   30.17F
$$

NDZ004>008-012>016-024-026-027-054-262000-
...NORTHEAST NORTH DAKOTA...

CITY           SKY/WX    TMP DP  RH WIND       PRES   REMARKS
GRAND FORKS    FAIR      56  32  40 N24G31    30.03F
GRAND FORKS AF FAIR      58  28  32 N16       30.03F
DEVILS LAKE    PTSUNNY   57  28  33 NW13      30.04F
$$

NDZ022-023-025-028>030-036>039-047>053-262000-
...SOUTHEAST NORTH DAKOTA...

CITY           SKY/WX    TMP DP  RH WIND       PRES   REMARKS
JAMESTOWN      FAIR      60  27  28 NW16G28   30.07F
FARGO          FAIR      57  29  34 N24G31    30.04F
WAHPETON       FAIR      55  27  33 NW30G36   30.03F
$$




USA.gov is the U.S. government's official web portal to all federal, state and local government web resources and services.